Weather History for South Hill, VA

Change the Weather History Date:

Saturday, December 7, 2013

  Actual Average (KEMV) Record (KEMV)
Temperature  
Mean Temperature 44 °F -  
Max Temperature 50 °F 56 °F 71 °F (2004)
Min Temperature 39 °F 29 °F 20 °F (1984)
Degree Days  
Heating Degree Days 20    
Moisture  
Dew Point 40 °F    
Average Humidity 87    
Maximum Humidity 100    
Minimum Humidity 70    
Precipitation  
Precipitation 0.54 in - - ()
Sea Level Pressure  
Sea Level Pressure 30.36 in    
Wind  
Wind Speed 10 mph (NNE)    
Max Wind Speed 18 mph    
Max Gust Speed 26 mph    
Visibility 10 miles    
Events Rain , Thunderstorm    
Averages and records for this station are not official NWS values.
T = Trace of Precipitation, MM = Missing Value Source: NWS Daily Summary

Daily Weather History Graph

Daily Weather History Graph

Search for Another Location

Airport:

Trip Planner

Search our weather history database for the weather conditions in past years. The results will help you decide how hot, cold, wet, or windy it might be!

Date:

Astronomy

Dec. 07, 2013 Rise Set
Actual Time 7:11 AM EST 4:56 PM EST
Civil Twilight 6:42 AM EST 5:24 PM EST
Nautical Twilight 6:10 AM EST 5:56 PM EST
Astronomical Twilight 5:39 AM EST 6:28 PM EST
Moon 11:00 AM EST (12/7) 10:29 PM EST (12/7)
Length of Visible Light 10h 41m
Length of Day
9h 44m
Waxing Crescent, 29% of the Moon is Illuminated
Dec 7
Waxing Crescent
Dec 9
First Quarter
Dec 17
Full
Dec 25
Last Quarter
Jan 1
New

Hourly Weather History & Observations

Time (EST) Temp. Windchill Dew Point Humidity Pressure Visibility Wind Dir Wind Speed Gust Speed Precip Events Conditions
12:15 AM 50.0 °F - 50.0 °F 100% 30.12 in 10.0 mi NNW 11.5 mph 18.4 mph N/A   Overcast
12:35 AM 48.2 °F - 48.2 °F 100% 30.13 in 10.0 mi North 17.3 mph 21.9 mph N/A   Overcast
12:55 AM 46.4 °F 39.2 °F 46.4 °F 100% 30.13 in 10.0 mi North 18.4 mph 26.5 mph N/A   Light Drizzle
1:15 AM 46.4 °F 40.7 °F 46.4 °F 100% 30.14 in 10.0 mi North 12.7 mph 17.3 mph N/A Rain Light Rain
1:35 AM 46.4 °F 43.5 °F 46.4 °F 100% 30.14 in 10.0 mi NNE 5.8 mph - N/A Rain , Thunderstorm Light Thunderstorms and Rain
1:55 AM 46.4 °F 43.5 °F 46.4 °F 100% 30.11 in 5.0 mi East 5.8 mph - 0.04 in Rain Rain
2:15 AM 46.4 °F 44.3 °F 46.4 °F 100% 30.13 in 7.0 mi North 4.6 mph - 0.10 in Rain Heavy Rain
2:35 AM 46.4 °F 44.3 °F 46.4 °F 100% 30.14 in 10.0 mi North 4.6 mph - 0.14 in Rain Rain
2:55 AM 46.4 °F 42.4 °F 46.4 °F 100% 30.15 in 7.0 mi North 8.1 mph - 0.04 in Rain Heavy Rain
3:15 AM 46.4 °F 42.4 °F 46.4 °F 100% 30.17 in 7.0 mi North 8.1 mph - 0.09 in Rain Heavy Rain
3:35 AM 46.4 °F 42.9 °F 46.4 °F 100% 30.16 in 10.0 mi NNE 6.9 mph - 0.13 in Rain , Thunderstorm Thunderstorms and Rain
3:55 AM 46.4 °F 40.7 °F 46.4 °F 100% 30.18 in 10.0 mi North 12.7 mph - 0.01 in Rain Light Rain
4:15 AM 46.4 °F 40.4 °F 46.4 °F 100% 30.19 in 10.0 mi North 13.8 mph 18.4 mph 0.02 in Rain Light Rain
4:35 AM 44.6 °F 37.8 °F 44.6 °F 100% 30.21 in 10.0 mi North 15.0 mph 18.4 mph 0.06 in Rain Rain
4:55 AM 44.6 °F 38.4 °F 44.6 °F 100% 30.20 in 10.0 mi North 12.7 mph 17.3 mph 0.02 in Rain Heavy Rain
5:15 AM 42.8 °F 34.8 °F 42.8 °F 100% 30.25 in 10.0 mi North 17.3 mph 21.9 mph 0.09 in Rain Light Rain
5:35 AM 42.8 °F 35.4 °F 42.8 °F 100% 30.24 in 10.0 mi North 15.0 mph 20.7 mph 0.13 in Rain Rain
5:55 AM 42.8 °F 36.6 °F 42.8 °F 100% 30.26 in 10.0 mi North 11.5 mph 17.3 mph N/A Rain Rain
6:15 AM 42.8 °F 36.2 °F 42.8 °F 100% 30.28 in 10.0 mi North 12.7 mph 18.4 mph 0.01 in Rain Rain
6:35 AM 41.0 °F 35.2 °F 41.0 °F 100% 30.28 in 10.0 mi North 9.2 mph - 0.03 in Rain Light Rain
6:55 AM 41.0 °F 35.2 °F 41.0 °F 100% 30.29 in 10.0 mi North 9.2 mph - N/A Rain Light Rain
7:15 AM 41.0 °F 36.4 °F 41.0 °F 100% 30.31 in 10.0 mi North 6.9 mph 16.1 mph N/A   Overcast
7:35 AM 41.0 °F 34.3 °F 41.0 °F 100% 30.33 in 10.0 mi North 11.5 mph 17.3 mph N/A Rain Light Rain
7:55 AM 41.0 °F 35.8 °F 41.0 °F 100% 30.33 in 10.0 mi North 8.1 mph - N/A   Light Drizzle
8:15 AM 41.0 °F 34.3 °F 41.0 °F 100% 30.34 in 10.0 mi North 11.5 mph 17.3 mph 0.01 in   Overcast
8:35 AM 41.0 °F 33.5 °F 41.0 °F 100% 30.35 in 10.0 mi North 13.8 mph 19.6 mph 0.01 in   Overcast
8:55 AM 41.0 °F 37.1 °F 41.0 °F 100% 30.38 in 10.0 mi North 5.8 mph - N/A   Overcast
9:15 AM 42.8 °F 37.0 °F 42.8 °F 100% 30.39 in 10.0 mi North 10.4 mph 16.1 mph N/A   Overcast
9:35 AM 42.8 °F 38.0 °F 42.8 °F 100% 30.39 in 10.0 mi North 8.1 mph - N/A   Overcast
9:55 AM 42.8 °F 38.0 °F 42.8 °F 100% 30.40 in 10.0 mi NNE 8.1 mph - N/A   Overcast
10:15 AM 42.8 °F 37.5 °F 41.0 °F 93% 30.40 in 10.0 mi NNE 9.2 mph 16.1 mph N/A   Overcast
10:35 AM 44.6 °F 38.4 °F 41.0 °F 87% 30.39 in 10.0 mi North 12.7 mph 18.4 mph N/A   Overcast
10:55 AM 44.6 °F 38.8 °F 42.8 °F 93% 30.40 in 10.0 mi North 11.5 mph 16.1 mph N/A   Overcast
11:15 AM 44.6 °F 40.2 °F 41.0 °F 87% 30.40 in 10.0 mi NNE 8.1 mph - N/A   Overcast
11:35 AM 44.6 °F 40.2 °F 42.8 °F 93% 30.40 in 10.0 mi NNE 8.1 mph - N/A   Overcast
11:55 AM 44.6 °F 39.7 °F 41.0 °F 87% 30.40 in 10.0 mi NNE 9.2 mph - N/A   Overcast
12:15 PM 44.6 °F 38.8 °F 39.2 °F 81% 30.40 in 10.0 mi North 11.5 mph 19.6 mph N/A   Overcast
12:35 PM 44.6 °F 39.7 °F 39.2 °F 81% 30.40 in 10.0 mi North 9.2 mph 16.1 mph N/A   Overcast
12:55 PM 46.4 °F 41.5 °F 39.2 °F 76% 30.39 in 10.0 mi North 10.4 mph 18.4 mph N/A   Overcast
1:15 PM 46.4 °F 42.4 °F 39.2 °F 76% 30.39 in 10.0 mi North 8.1 mph - N/A   Overcast
1:35 PM 46.4 °F 41.9 °F 39.2 °F 76% 30.39 in 10.0 mi NNE 9.2 mph - N/A   Overcast
1:55 PM 46.4 °F 42.4 °F 37.4 °F 71% 30.38 in 10.0 mi NNE 8.1 mph - N/A   Overcast
2:15 PM 46.4 °F 41.5 °F 37.4 °F 71% 30.39 in 10.0 mi North 10.4 mph 16.1 mph N/A   Overcast
2:35 PM 46.4 °F 41.9 °F 39.2 °F 76% 30.39 in 10.0 mi North 9.2 mph - N/A   Overcast
2:55 PM 46.4 °F 42.4 °F 37.4 °F 71% 30.39 in 10.0 mi North 8.1 mph 17.3 mph N/A   Overcast
3:35 PM 46.4 °F 43.5 °F 37.4 °F 71% 30.40 in 10.0 mi NNE 5.8 mph - N/A   Overcast
3:55 PM 46.4 °F 41.9 °F 37.4 °F 71% 30.42 in 10.0 mi North 9.2 mph - N/A   Overcast
4:15 PM 46.4 °F 41.9 °F 37.4 °F 71% 30.42 in 10.0 mi North 9.2 mph - N/A   Overcast
4:35 PM 44.6 °F 39.7 °F 37.4 °F 76% 30.43 in 10.0 mi North 9.2 mph - N/A   Overcast
4:55 PM 44.6 °F 40.2 °F 37.4 °F 76% 30.44 in 10.0 mi North 8.1 mph - N/A   Overcast
5:15 PM 44.6 °F 40.7 °F 37.4 °F 76% 30.45 in 10.0 mi North 6.9 mph - N/A   Overcast
5:35 PM 44.6 °F 42.2 °F 37.4 °F 76% 30.45 in 10.0 mi NNE 4.6 mph - N/A   Overcast
5:55 PM 44.6 °F 42.2 °F 37.4 °F 76% 30.46 in 10.0 mi NNE 4.6 mph - N/A   Overcast
6:15 PM 44.6 °F 40.7 °F 37.4 °F 76% 30.47 in 10.0 mi NNE 6.9 mph - N/A   Overcast
6:35 PM 44.6 °F 40.7 °F 37.4 °F 76% 30.48 in 10.0 mi NNE 6.9 mph - N/A   Overcast
6:55 PM 44.6 °F 41.4 °F 37.4 °F 76% 30.50 in 10.0 mi North 5.8 mph - N/A   Overcast
7:15 PM 42.8 °F 39.3 °F 35.6 °F 76% 30.50 in 10.0 mi NNE 5.8 mph - N/A   Overcast
7:35 PM 42.8 °F 40.1 °F 35.6 °F 76% 30.51 in 10.0 mi NNE 4.6 mph - N/A   Overcast
7:55 PM 42.8 °F 40.1 °F 35.6 °F 76% 30.51 in 10.0 mi NNE 4.6 mph - N/A   Overcast
8:15 PM 42.8 °F 39.3 °F 35.6 °F 76% 30.52 in 10.0 mi NNE 5.8 mph - N/A   Overcast
8:35 PM 42.8 °F 39.3 °F 33.8 °F 70% 30.52 in 10.0 mi North 5.8 mph - N/A   Overcast
8:55 PM 42.8 °F 38.0 °F 33.8 °F 70% 30.52 in 10.0 mi NNE 8.1 mph - N/A   Mostly Cloudy
9:15 PM 42.8 °F 39.3 °F 33.8 °F 70% 30.53 in 10.0 mi NE 5.8 mph - N/A   Mostly Cloudy
9:35 PM 42.8 °F 39.3 °F 33.8 °F 70% 30.53 in 10.0 mi NNE 5.8 mph - N/A   Overcast
9:55 PM 41.0 °F 38.0 °F 33.8 °F 76% 30.53 in 10.0 mi NNE 4.6 mph - N/A   Overcast
10:15 PM 41.0 °F 37.1 °F 32.0 °F 70% 30.54 in 10.0 mi NE 5.8 mph - N/A   Overcast
10:35 PM 39.2 °F 33.0 °F 32.0 °F 75% 30.54 in 10.0 mi NNE 9.2 mph - N/A   Overcast
10:55 PM 39.2 °F 35.9 °F 32.0 °F 75% 30.54 in 10.0 mi NNE 4.6 mph - N/A   Overcast
11:15 PM 39.2 °F 34.2 °F 32.0 °F 75% 30.54 in 10.0 mi NNE 6.9 mph - N/A   Overcast
11:35 PM 39.2 °F 35.9 °F 32.0 °F 75% 30.54 in 10.0 mi NNE 4.6 mph - N/A   Overcast
11:55 PM 39.2 °F 34.2 °F 32.0 °F 75% 30.54 in 10.0 mi NNE 6.9 mph - N/A   Overcast